Starlink 32583

operational
NORAD ID: 61955 Int'l Des: 2024-209 Owner: SPXS Country: US Constellation: starlink
LEOCIRCULAR

About Starlink 32583

Description loading...

Live Position

Loading 3D Globe...

Upcoming Passes

Altitude History

Altitude vs Time

uPlot chart will show altitude changes over time

Two-Line Element Set

1 61955U 24209S 26095.06867414 .00037032 00000-0 12577-2 0 9990
2 61955 53.1603 20.0131 0001227 113.3845 246.7285 15.30161674 78957
Epoch: Apr 5, 2026 • Age: 11 hours

Current Status

Altitude 476.3 km
Velocity 7.63 km/s
Sub-Earth Point 26.77°N, 14.56°E
Launch Date Nov 14, 2024
Age 1.3 years
Type internet

Technical Details

Classification Payload
Mass 730.00 kg
Dry Mass 700.00 kg
Total Mass 730.00 kg
Length 0.30 m
Diameter 4.10 m
Span 29.00 m
Shape Box + pan
Manufacturer SPXS
Bus Type Starlink V2M
Phase Status In Orbit
Owner/State SPXS/US

Large Constellations

Loading constellations...